Home > Weather > Bühl > Past weeks

Flag for Germany Weather for the Past 2 Weeks in Bühl, Baden-Württemberg, Germany

Now
45 °F

Partly sunny.


Feels Like: 41 °F
Forecast: 36 / 42 °F
Wind: 7 mph from West

Location: Karlsruhe - Baden Wurttemberg

Current Time: Feb 14, 2016 at 11:50:17 AM

Latest Report: Feb 14, 2016 at 11:20 AM


Visibility: N/A

Pressure: 29.21 "Hg

Humidity: 76%

Dew point: 37 °F

Location of BühlLocation

Historic Weather in Bühl — Graph

°F

Bühl Temperature Yesterday

Maximum temperature yesterday: 48 °F (at 1:20 PM)
Minimum temperature yesterday: 37 °F (at 5:20 AM)
Average temperature yesterday: 44 °F

High & Low Weather Summary for the Past Weeks

 TemperatureHumidityPressure
High59 °F (Feb 6, 1:50 PM)100% (Feb 4, 7:50 PM)30.39 "Hg (Feb 4, 7:50 PM)
Low30 °F (Feb 6, 5:50 AM)39% (Feb 6, 3:50 PM)29.06 "Hg (Feb 13, 8:50 PM)
Average45 °F78%29.83 "Hg
* Reported Jan 30 10:20 AM — Feb 14 10:50 AM, Bühl, Weather by CustomWeather, © 2016

Note: Actual official high and low records may vary slightly from our data, if they occured in-between our weather recording intervals... More about our weather records

Advertising

Bühl Weather History for the Previous 24 Hours

 ConditionsComfort  
Time TempWeatherWind HumidityBarometerVisibility
10:50 AM
Sun, Feb 14
46 °FPartly sunny.7 mph71%29.18 "HgN/A
10:20 AM46 °FLight rain. Broken clouds.3 mph71%29.18 "HgN/A
9:50 AM46 °FPartly sunny.6 mph76%29.15 "HgN/A
9:20 AM46 °FPartly sunny.5 mph76%29.15 "HgN/A
8:20 AM45 °FPartly sunny.7 mph76%29.15 "HgN/A
7:50 AM45 °FPartly sunny.9 mph76%29.15 "HgN/A
7:20 AM45 °FPassing clouds.10 mph81%29.15 "HgN/A
6:50 AM45 °FLight rain. Passing clouds.8 mph87%29.15 "Hg6 mi
6:20 AM45 °FLight rain. Passing clouds.13 mph81%29.15 "HgN/A
5:50 AM46 °FLight rain. Passing clouds.15 mph76%29.15 "HgN/A
5:20 AM46 °FPassing clouds.15 mph71%29.15 "HgN/A
4:50 AM46 °FPassing clouds.21 mph71%29.15 "HgN/A
11:20 PM
Sat, Feb 13
46 °FLight rain. Passing clouds.23 mph82%29.06 "Hg6 mi
10:50 PM46 °FRain. Passing clouds.21 mph87%29.06 "Hg6 mi
9:50 PM46 °FRain. Passing clouds.21 mph76%29.06 "Hg6 mi
9:20 PM46 °FPassing clouds.25 mph76%29.06 "HgN/A
8:50 PM46 °FScattered showers. Passing clouds.20 mph82%29.06 "HgN/A
8:20 PM46 °FLight rain. Passing clouds.18 mph82%29.09 "Hg5 mi
7:50 PM46 °FRain. Passing clouds.20 mph82%29.09 "Hg4 mi
7:20 PM48 °FRain. Passing clouds.21 mph76%29.09 "Hg4 mi
6:50 PM48 °FPassing clouds.20 mph76%29.09 "HgN/A
6:20 PM48 °FPartly cloudy.16 mph76%29.09 "HgN/A
5:50 PM48 °FScattered showers. Passing clouds.17 mph76%29.09 "HgN/A
5:20 PM46 °FScattered showers. Partly sunny.10 mph82%29.09 "HgN/A
4:50 PM46 °FDrizzle. Partly sunny.3 mph76%29.12 "Hg5 mi
4:20 PM46 °FLight rain. Broken clouds.2 mph76%29.12 "HgN/A
3:52 PM48 °FRain showers. Partly sunny.3 mph71%29.12 "HgN/A
3:20 PM46 °FLight rain. Partly sunny.2 mph76%29.15 "HgN/A
2:50 PM46 °FPartly sunny.3 mph71%29.15 "HgN/A
2:20 PM46 °FPartly sunny.13 mph71%29.18 "HgN/A
1:50 PM48 °FLight rain. Broken clouds.14 mph66%29.21 "HgN/A
1:20 PM48 °FDrizzle. Broken clouds.14 mph71%29.21 "HgN/A
12:50 PM46 °FBroken clouds.6 mph82%29.24 "HgN/A
12:20 PM46 °FScattered showers. Broken clouds.6 mph82%29.27 "HgN/A
11:51 AM45 °FSprinkles. Partly sunny.5 mph87%29.27 "HgN/A
11:20 AM43 °FBroken clouds.3 mph87%29.30 "HgN/A
Weather by CustomWeather, © 2016

See weather overviewHow to use our weather pages